Wind_Speed
16 15 13 12 11 10 8 7 5 4 3 1 1 1 2 2 4 5 4 5 5 5 6 6 6 6 6 6 6 7 7 8 8 9 9 9 10 10 10 10 10 10 9 8
19 18 16 14 13 11 9 8 7 6 5 3 2 1 1 2 2 3 4 4 5 5 5 5 6 6 6 5 6 6 7 8 8 8 8 8 9 10 10 10 10 9 9 8
21 21 19 16 14 13 11 10 9 8 7 5 3 3 3 2 2 2 3 3 4 6 6 6 6 6 6 6 6 6 6 7 8 8 8 8 9 9 10 10 10 9 9 9
24 23 21 19 17 15 13 12 11 10 8 7 6 5 5 4 3 2 2 3 4 5 5 5 6 6 6 6 6 6 6 7 7 8 8 9 10 10 11 10 10 10 10 10
26 24 23 21 19 17 16 14 12 11 10 10 8 6 7 6 4 3 3 3 3 4 5 5 6 6 5 6 6 5 6 6 7 7 8 9 9 10 10 10 10 11 11 12
27 25 25 23 21 20 18 16 14 13 12 12 11 9 8 7 5 4 4 3 3 4 4 5 5 6 6 6 6 5 5 6 7 7 8 9 9 10 10 10 11 12 12 12
27 27 26 25 23 22 20 17 15 14 15 14 13 12 10 9 7 6 6 5 5 5 4 4 4 5 5 5 5 5 5 6 6 7 8 9 9 10 11 11 12 12 13 12
28 27 26 25 25 23 21 19 18 16 15 14 15 14 12 11 9 7 7 6 6 6 5 5 4 4 5 5 5 5 6 7 7 8 8 9 10 10 11 12 12 12 13 14
28 27 27 26 25 24 23 21 19 17 16 15 15 15 13 12 10 9 8 7 7 7 7 6 5 5 5 6 6 6 6 7 8 9 9 10 11 11 12 12 12 12 13 14
29 28 27 26 26 26 24 22 21 20 18 16 16 15 14 13 12 11 11 10 9 8 8 7 7 7 7 7 8 8 8 8 9 10 10 10 10 11 12 12 13 13 13 14
30 29 28 27 27 26 26 25 23 21 19 16 15 15 15 14 13 13 12 11 10 9 9 8 9 9 9 9 9 10 10 10 10 10 11 11 12 12 13 12 13 13 14 14
30 29 29 29 28 27 26 26 24 22 21 19 16 16 17 15 13 12 12 12 11 10 10 9 9 9 10 10 10 11 11 11 11 11 12 12 13 13 13 13 14 14 14 14
31 31 29 28 29 28 28 27 26 24 22 20 17 17 17 16 15 13 13 13 13 12 11 11 11 11 11 11 11 12 12 12 12 12 13 14 14 14 13 14 15 15 15 15
32 31 29 26 26 27 27 27 27 26 23 21 19 18 18 16 15 15 15 14 14 14 13 13 13 13 13 12 12 12 12 13 13 13 14 15 15 15 15 15 15 15 15 16
32 31 31 30 28 28 28 28 28 27 25 22 20 20 19 18 16 16 16 16 15 15 15 15 14 14 14 14 14 14 14 14 15 16 16 16 16 16 16 16 16 17 17 17
32 32 31 31 29 29 29 29 29 27 26 24 22 21 20 19 18 17 17 17 16 16 16 16 16 16 16 16 15 16 16 16 16 17 18 17 17 17 17 17 17 18 18 17
32 32 31 30 30 29 30 29 28 27 26 24 23 23 21 20 19 18 18 18 17 17 16 17 18 18 18 18 18 18 18 18 18 19 19 19 19 19 19 19 19 18 18 18
32 31 30 29 30 30 29 29 27 27 27 26 24 24 22 21 20 19 19 19 19 19 18 18 18 18 19 20 20 19 19 19 19 19 20 20 20 20 20 20 19 19 19 18
31 31 30 29 29 29 31 29 28 27 27 26 25 24 24 22 21 21 21 20 20 20 20 19 19 20 20 21 20 20 19 20 20 20 21 21 21 21 21 20 20 19 19 19
29 30 30 30 28 28 30 29 28 28 28 27 27 25 24 23 23 22 22 21 21 21 21 21 21 20 21 21 21 22 21 21 22 22 22 22 22 21 21 20 20 20 20 20
29 29 29 30 30 29 30 28 28 28 28 28 27 26 25 25 24 23 23 23 23 23 23 23 23 22 21 22 22 23 23 23 23 23 23 23 23 21 21 21 21 21 20 21
28 28 28 28 29 29 29 28 29 28 28 28 27 26 26 26 25 25 24 24 24 23 23 23 23 23 23 23 23 23 23 24 24 24 24 24 23 22 22 22 22 21 21 22
30 29 28 28 29 29 28 28 28 28 28 27 27 27 26 27 27 25 25 24 23 23 23 23 22 22 23 23 23 23 23 23 23 24 24 24 24 23 23 23 23 22 22 23
31 29 29 28 28 28 28 28 28 28 28 27 27 27 27 27 26 26 26 26 25 25 24 24 24 23 23 23 23 23 23 23 23 23 22 23 23 24 24 24 24 23 24 24
33 31 30 29 28 28 28 28 28 28 28 28 28 28 27 28 27 27 27 27 27 26 25 24 24 23 23 23 24 24 23 23 22 22 21 21 22 23 24 24 24 24 24 24
32 31 31 31 30 29 28 29 29 28 29 29 29 29 29 29 29 29 29 28 27 26 26 26 25 25 24 24 24 24 24 23 23 23 23 23 23 24 24 24 25 25 25 25
Wind_Direction
215 215 217 214 206 206 210 210 215 223 215 193 139 98 62 39 36 38 43 41 37 37 39 37 32 30 31 32 30 29 29 30 30 34 38 37 34 33 30 27 24 25 24 22
216 218 218 218 215 214 216 217 223 233 229 223 215 242 309 334 16 28 34 32 30 26 23 18 21 24 22 21 21 23 32 30 27 30 30 30 30 28 25 23 20 16 13 12
218 221 220 219 220 221 223 221 228 236 236 238 242 267 274 297 323 358 12 13 11 12 14 14 11 12 13 11 14 20 21 22 25 27 26 23 23 21 19 18 17 13 7 2
218 220 220 221 222 221 224 227 231 235 235 243 239 260 271 272 283 302 329 349 357 5 9 9 4 2 3 7 9 10 10 15 18 21 22 20 18 15 13 14 13 10 3 359
220 220 220 221 223 223 224 228 233 236 236 239 242 245 264 266 272 279 286 309 333 353 1 358 352 357 357 359 356 358 1 7 7 8 10 10 10 10 9 9 8 6 360 356
222 222 221 221 222 223 226 229 234 237 239 242 242 243 249 259 264 262 265 278 296 313 333 341 341 349 350 351 347 347 349 353 356 356 357 360 1 2 1 0 359 357 356 354
222 222 222 221 221 223 226 228 232 236 240 244 246 245 247 254 255 255 255 265 278 293 306 314 322 336 340 340 340 338 340 342 347 348 347 348 349 350 349 350 349 350 351 349
224 224 222 220 222 225 226 227 226 230 240 245 249 247 248 252 251 248 253 262 274 280 286 298 307 317 324 323 322 322 327 331 334 337 338 340 341 339 343 345 343 344 344 342
222 225 224 222 223 225 226 225 226 232 237 237 246 249 251 248 244 246 249 258 268 273 273 281 293 299 304 309 312 313 314 318 319 323 325 329 334 337 337 338 338 337 337 337
219 223 224 222 223 225 226 227 227 228 233 239 247 250 249 247 242 246 251 259 264 267 268 274 280 283 291 294 297 301 305 308 312 316 317 321 323 326 330 332 330 329 331 332
220 222 223 222 222 225 226 226 227 230 233 234 243 249 245 246 245 246 250 254 258 263 266 268 273 278 283 286 287 292 300 304 306 311 315 315 317 319 321 323 327 325 326 328
219 220 223 223 223 224 226 228 229 229 233 234 236 248 248 247 248 246 246 249 255 259 260 263 268 274 281 284 285 290 293 296 302 306 310 312 313 315 318 316 320 323 322 323
219 219 221 224 224 224 227 228 229 229 234 236 237 244 249 245 244 245 247 248 254 256 259 262 267 274 281 283 283 287 290 294 299 304 307 310 310 310 314 314 316 319 320 322
219 220 220 223 226 227 228 229 228 228 231 236 237 239 247 244 241 243 246 249 253 255 256 260 265 272 279 281 282 282 287 292 296 300 302 305 306 306 307 309 311 314 316 317
220 222 222 222 225 227 229 229 229 229 230 233 238 239 242 246 242 244 246 247 249 252 253 255 262 269 274 276 278 279 284 291 294 296 297 299 301 302 303 303 305 307 309 312
221 223 224 225 226 228 230 230 230 229 230 232 235 240 242 245 245 244 245 248 249 249 251 253 259 265 269 275 280 282 285 289 293 294 295 298 300 302 301 299 300 303 305 307
222 223 224 226 227 229 230 229 229 230 231 233 235 237 240 242 243 244 244 245 248 247 252 256 259 262 267 273 278 281 281 285 288 291 296 300 299 298 298 296 296 299 303 305
222 222 224 224 226 227 229 230 231 231 232 232 234 236 239 240 239 241 243 245 246 247 250 255 257 261 266 271 276 280 280 283 288 292 294 297 297 295 294 294 294 296 299 301
222 222 222 225 227 228 230 229 228 230 232 233 235 237 238 239 239 239 242 244 245 247 250 253 258 261 264 269 272 276 280 282 285 290 293 295 297 296 293 292 294 295 296 298
220 221 222 224 224 228 231 229 229 230 233 234 236 237 239 240 240 240 241 243 247 250 253 256 258 260 263 267 272 276 278 280 282 287 291 293 295 295 292 293 293 294 295 297
218 220 222 224 225 228 231 230 228 231 234 235 236 238 238 240 241 241 241 244 248 251 253 256 258 260 262 265 269 273 275 279 281 285 288 289 292 292 291 292 294 294 293 295
217 219 221 222 224 228 230 228 229 232 234 237 237 238 238 240 242 243 243 245 248 252 256 258 259 260 262 264 267 271 274 277 280 283 284 286 287 287 289 291 293 295 296 295
218 220 222 223 226 228 230 230 230 232 235 236 236 236 237 240 242 243 243 246 250 253 257 258 260 262 263 264 267 269 272 276 280 282 283 283 283 284 287 289 291 293 295 295
221 223 225 227 229 230 231 231 232 233 235 236 238 238 239 240 242 242 245 249 252 253 256 259 261 262 263 264 266 270 272 275 278 280 282 283 282 283 286 287 289 291 292 293
224 226 228 230 231 232 232 230 231 233 235 238 239 239 240 240 241 243 247 249 252 254 257 258 259 261 261 262 265 268 271 275 277 278 281 283 284 284 285 287 288 289 290 291
225 226 229 232 233 234 233 233 232 233 236 238 239 240 241 242 243 246 248 250 252 254 256 257 259 260 262 264 267 269 271 274 276 278 280 282 283 283 283 284 286 286 287 289
Height
5914 5918 5919 5921 5924 5926 5927 5928 5929 5929 5928 5928 5928 5928 5928 5927 5927 5926 5925 5924 5923 5923 5922 5921 5920 5918 5918 5917 5916 5914 5913 5912 5910 5909 5908 5907 5905 5904 5902 5901 5899 5898 5897 5896
5912 5915 5917 5919 5921 5923 5925 5927 5928 5928 5928 5928 5928 5928 5928 5927 5927 5926 5926 5925 5924 5923 5923 5922 5920 5920 5918 5917 5916 5915 5914 5913 5911 5910 5909 5908 5906 5905 5903 5902 5900 5899 5898 5896
5909 5912 5914 5917 5919 5921 5923 5925 5926 5926 5927 5927 5928 5928 5928 5928 5927 5926 5926 5925 5924 5924 5923 5922 5921 5920 5919 5918 5917 5916 5915 5914 5912 5911 5910 5909 5907 5906 5904 5902 5901 5899 5898 5896
5904 5907 5911 5913 5916 5919 5921 5923 5924 5925 5926 5927 5928 5929 5928 5927 5927 5926 5925 5925 5925 5924 5923 5922 5922 5921 5919 5919 5917 5916 5915 5914 5913 5912 5911 5909 5908 5906 5905 5903 5901 5900 5898 5896
5900 5903 5907 5910 5913 5916 5919 5920 5922 5923 5924 5926 5926 5927 5929 5926 5926 5926 5925 5925 5924 5924 5923 5922 5922 5921 5920 5919 5918 5917 5916 5915 5914 5912 5911 5910 5908 5907 5905 5903 5901 5900 5898 5896
5895 5899 5903 5906 5909 5912 5914 5917 5919 5921 5923 5924 5925 5926 5927 5926 5925 5925 5924 5924 5924 5923 5923 5922 5921 5921 5920 5919 5918 5917 5916 5915 5914 5912 5911 5910 5908 5907 5905 5903 5901 5899 5898 5896
5890 5894 5898 5902 5905 5908 5911 5915 5917 5919 5920 5922 5922 5922 5925 5923 5923 5923 5923 5923 5923 5922 5922 5921 5921 5920 5919 5919 5917 5917 5916 5915 5914 5912 5911 5910 5908 5907 5905 5903 5901 5899 5897 5895
5886 5890 5893 5897 5900 5903 5907 5911 5915 5917 5919 5920 5918 5919 5922 5920 5921 5921 5921 5921 5921 5921 5921 5921 5920 5920 5919 5918 5917 5916 5915 5914 5913 5912 5911 5909 5908 5906 5904 5902 5900 5899 5897 5894
5882 5886 5888 5892 5896 5900 5902 5905 5910 5913 5914 5916 5916 5916 5917 5917 5918 5918 5919 5919 5920 5920 5919 5919 5919 5919 5918 5917 5916 5915 5914 5913 5912 5911 5910 5909 5907 5905 5904 5902 5900 5898 5895 5893
5876 5881 5883 5887 5891 5894 5898 5901 5905 5907 5910 5912 5913 5913 5915 5914 5915 5916 5916 5917 5917 5917 5918 5917 5917 5917 5917 5916 5915 5914 5913 5912 5911 5910 5909 5908 5906 5904 5903 5901 5899 5896 5894 5892
5871 5876 5879 5882 5885 5889 5893 5896 5899 5903 5905 5908 5911 5913 5911 5911 5912 5913 5913 5914 5915 5915 5915 5915 5915 5915 5915 5914 5913 5912 5911 5910 5909 5908 5907 5906 5904 5903 5901 5899 5897 5895 5893 5891
5865 5870 5874 5877 5881 5884 5888 5891 5895 5898 5900 5903 5906 5910 5906 5907 5908 5909 5910 5911 5912 5912 5913 5913 5913 5913 5912 5912 5911 5910 5909 5908 5907 5906 5905 5904 5902 5901 5899 5897 5895 5893 5891 5889
5858 5864 5868 5872 5876 5879 5882 5885 5889 5893 5895 5898 5902 5906 5902 5903 5905 5906 5907 5908 5908 5909 5910 5910 5910 5910 5910 5910 5909 5908 5907 5906 5905 5904 5903 5901 5900 5898 5896 5895 5893 5891 5889 5886
5852 5857 5863 5869 5871 5874 5877 5880 5883 5887 5890 5893 5896 5899 5898 5899 5901 5902 5903 5904 5905 5906 5907 5907 5907 5907 5907 5907 5906 5906 5905 5904 5902 5901 5900 5898 5896 5895 5893 5892 5890 5888 5886 5884
5846 5852 5856 5861 5864 5868 5871 5874 5878 5881 5885 5889 5891 5893 5894 5895 5897 5898 5899 5900 5901 5902 5903 5903 5904 5904 5904 5904 5903 5903 5902 5900 5899 5898 5897 5895 5894 5892 5890 5889 5887 5885 5883 5881
5840 5845 5850 5854 5858 5861 5865 5868 5872 5876 5879 5883 5886 5888 5889 5890 5892 5893 5895 5896 5897 5898 5898 5899 5900 5900 5900 5900 5899 5899 5898 5897 5896 5894 5893 5892 5890 5888 5887 5885 5883 5881 5880 5877
5834 5839 5844 5848 5852 5855 5859 5862 5866 5870 5873 5877 5880 5882 5883 5885 5887 5889 5890 5891 5892 5893 5894 5895 5895 5895 5895 5895 5895 5894 5893 5893 5892 5890 5889 5887 5886 5884 5883 5881 5879 5877 5875 5873
5828 5833 5838 5843 5846 5850 5855 5856 5861 5864 5868 5871 5873 5876 5878 5880 5882 5884 5885 5886 5887 5888 5889 5890 5890 5890 5891 5891 5890 5889 5889 5888 5887 5886 5884 5883 5881 5880 5878 5877 5875 5873 5871 5869
5822 5827 5832 5836 5840 5844 5847 5851 5855 5858 5861 5865 5867 5870 5872 5874 5876 5878 5879 5881 5882 5883 5884 5885 5885 5886 5886 5886 5885 5884 5884 5883 5882 5881 5879 5878 5876 5875 5873 5872 5870 5868 5866 5864
5816 5821 5826 5830 5835 5838 5842 5845 5849 5853 5855 5858 5861 5864 5866 5868 5871 5873 5874 5875 5877 5878 5879 5879 5879 5880 5880 5880 5880 5879 5879 5878 5877 5876 5874 5873 5871 5870 5868 5867 5865 5863 5861 5859
5810 5814 5819 5823 5827 5831 5834 5839 5843 5847 5850 5852 5855 5857 5860 5862 5865 5867 5868 5870 5871 5872 5873 5873 5874 5874 5874 5874 5874 5874 5873 5872 5871 5870 5869 5867 5866 5864 5863 5861 5859 5857 5856 5854
5804 5809 5813 5817 5822 5827 5828 5832 5836 5839 5843 5846 5848 5851 5853 5856 5858 5860 5862 5863 5865 5866 5867 5867 5867 5868 5868 5868 5869 5868 5867 5866 5865 5864 5863 5862 5860 5859 5857 5856 5854 5852 5850 5849
5798 5803 5807 5811 5816 5818 5822 5825 5829 5832 5836 5838 5841 5844 5846 5849 5851 5853 5855 5857 5858 5860 5860 5861 5861 5862 5862 5862 5862 5862 5861 5860 5859 5857 5856 5855 5854 5853 5851 5850 5848 5847 5845 5842
5792 5796 5801 5805 5808 5812 5815 5819 5822 5825 5828 5831 5834 5837 5839 5841 5844 5846 5848 5850 5851 5852 5853 5854 5855 5855 5855 5855 5855 5855 5855 5853 5852 5851 5849 5848 5847 5846 5845 5843 5842 5840 5838 5836
5786 5790 5794 5797 5801 5805 5808 5811 5815 5818 5821 5824 5827 5829 5832 5834 5836 5839 5840 5842 5844 5845 5846 5847 5848 5848 5848 5848 5848 5848 5848 5847 5846 5844 5843 5842 5841 5839 5838 5836 5835 5833 5831 5829
5779 5784 5787 5791 5794 5798 5801 5804 5807 5810 5814 5817 5819 5822 5824 5827 5829 5831 5833 5835 5836 5838 5839 5839 5840 5840 5841 5841 5841 5841 5841 5840 5839 5838 5837 5836 5834 5832 5831 5829 5828 5826 5824 5823